This is the latest recevied weather packets stored in our database for station/object F4NFR-13. If no packets are shown the sender has not sent any weather packets the latest 10 day(s).
| Time | Temp. | Humidity | Pressure | Rain* | Wind** | Luminosity | Snow |
|---|---|---|---|---|---|---|---|
| 1777726121 | 21.11° C | 59% | 1017.8 hPa | 0 mm | - | 126 W/m² | - |
| 1777725819 | 21.11° C | 57% | 1017.8 hPa | 0 mm | - | 125 W/m² | - |
| 1777725516 | 21.11° C | 58% | 1018.1 hPa | 0 mm | - | 144 W/m² | - |
| 1777717918 | 18.89° C | 57% | 1019.8 hPa | 0 mm | - | 50 W/m² | - |
| 1777717313 | 18.89° C | 57% | 1019.8 hPa | 0 mm | - | 0 W/m² | - |
| 1777713025 | 17.78° C | 54% | 1020.5 hPa | 0 mm | - | 3 W/m² | - |
| 1777712420 | 17.78° C | 54% | 1020.5 hPa | 0 mm | - | 6 W/m² | - |
| 1777712118 | 17.22° C | 59% | 1020.5 hPa | 0 mm | - | 0 W/m² | - |
| 1777711815 | 17.22° C | 63% | 1020.5 hPa | 0 mm | - | 0 W/m² | - |
| 1777710908 | 16.11° C | 69% | 1020.8 hPa | 0 mm | - | 278 W/m² | - |
| 1777710606 | 16.11° C | 66% | 1020.8 hPa | 0 mm | - | 0 W/m² | - |
| 1777710303 | 16.11° C | 70% | 1020.8 hPa | 0 mm | - | 0 W/m² | - |
| 1777710001 | 16.11° C | 69% | 1020.8 hPa | 0 mm | - | 0 W/m² | - |
| 1777709396 | 15° C | 76% | 1020.8 hPa | 0 mm | - | 320 W/m² | - |
| 1777709094 | 15° C | 73% | 1020.8 hPa | 0 mm | - | 261 W/m² | - |
| 1777708295 | 15° C | 72% | 1021.1 hPa | 0 mm | - | 326 W/m² | - |
| 1777707992 | 15° C | 73% | 1020.8 hPa | 0 mm | - | 308 W/m² | - |
| 1777707690 | 15° C | 74% | 1021.1 hPa | 0 mm | - | 0 W/m² | - |
| 1777707157 | 15° C | 79% | 1021.1 hPa | 0 mm | - | 0 W/m² | - |
| 1777706855 | 15° C | 78% | 1021.1 hPa | 0 mm | - | 0 W/m² | - |
| 1777706552 | 15° C | 82% | 1021.1 hPa | 0 mm | - | 278 W/m² | - |
| 1777706191 | 15° C | 85% | 1021.1 hPa | 0 mm | - | 293 W/m² | - |
| 1777705589 | 13.89° C | 93% | 1021.1 hPa | 0 mm | - | 225 W/m² | - |
| 1777704986 | 12.78° C | 93% | 1021.1 hPa | 0 mm | - | 156 W/m² | - |
| 1777704881 | 12.78° C | 93% | 1021.1 hPa | 0 mm | - | 179 W/m² | - |
* Rain latest hour (hover to see other rain measurements)
** Current wind speed in m/s (hover to see current wind gust speed)